Regional Weather Roundup
Issued by NWS

Home | Current Version | Previous Version | Graphics & Text | Print | Product List | Glossary On
Versions: 1 2 3 4 5 6 7 8 9 10 11 12 13 14 15 16 17 18 19 20 21 22 23 24 25 26 27 28 29 30 31 32 33 34 35 36 37 38 39 40 41 42 43 44 45 46 47 48 49 50
000
ASUS43 KDTX 231510
RWRMI
MICHIGAN HOURLY REGIONAL WEATHER ROUNDUP
NATIONAL WEATHER SERVICE DETROIT/PONTIAC MI
1100 AM EDT WED APR 23 2014

NOTE: "FAIR" INDICATES FEW OR NO CLOUDS BELOW 12,000 FEET WITH NO
SIGNIFICANT WEATHER AND/OR OBSTRUCTION TO VISIBILITY.

MIZ047>049-052>055-059>063-066>070-074>076-081>083-231600-
SOUTHEAST LOWER MICHIGAN

CITY           SKY/WX    TMP DP  RH WIND       PRES   REMARKS
ADRIAN         SUNNY     44  29  55 NE13      30.11R
ALMA           SUNNY     43  22  42 N10G16    30.13R
ANN ARBOR      MOSUNNY   43  29  57 NW10      30.10R
BAD AXE        SUNNY     39  26  58 N14G23    30.10R
DETROIT CITY   CLOUDY    45  28  51 N9G17     30.09R
DETROIT        PTSUNNY   43  30  60 NW13      30.10R
FLINT          SUNNY     44  28  53 N12       30.11R
GROSSE ILE     CLOUDY    43  30  61 NW10G17   30.08R
HILLSDALE      SUNNY     44  28  54 N8        30.09S
HOWELL         SUNNY     42  28  57 NW12      30.10R

CITY           SKY/WX    TMP DP  RH WIND       PRES   REMARKS
JACKSON        SUNNY     44  27  51 N12       30.11R
LAMBERTVILLE     N/A    N/A N/A N/A MISG        N/A
LANSING        SUNNY     42  27  55 N8        30.13S
LAPEER         NOT AVBL
MASON          MOSUNNY   41  28  60 NW6       30.11S
MONROE         PTSUNNY   43  30  61 N10       30.09R
MT. CLEMENS    PTSUNNY   46  30  54 NW18G24   30.06S
PONTIAC        PTSUNNY   41  28  60 N10       30.07S
PORT HOPE        N/A     39  28  64 N7        30.09R
PORT HURON     CLOUDY    41  32  70 NW9       30.07R
TRI CITIES     SUNNY     45  22  40 N13       30.12S
YPSILANTI      MOSUNNY   46  30  53 N13       30.10R
$$
MIZ043>046-050>051-056>058-064>065-071>073-077>080-231600-
SOUTHWEST LOWER MICHIGAN

CITY           SKY/WX    TMP DP  RH WIND       PRES   REMARKS
BATTLE CREEK   SUNNY     43  27  53 N12       30.13R
BENTON HARBOR  SUNNY     40  31  70 VRB6      30.15F
BIG RAPIDS     SUNNY     43  24  47 N9        30.13R
COLDWATER      SUNNY     42  29  59 N7        30.12S
HOLLAND        SUNNY     46  27  47 NE8       30.15F
GRAND RAPIDS   MOSUNNY   45  24  43 NE7       30.14S
KALAMAZOO      SUNNY     43  27  53 NE6G18    30.14S
MARSHALL       SUNNY     42  27  55 N5        30.11S
MUSKEGON       MOSUNNY   46  23  40 N8        30.16F
$$
MIZ016>042-231600-
NORTHERN LOWER MICHIGAN

CITY           SKY/WX    TMP DP  RH WIND       PRES   REMARKS
ALPENA         SUNNY     41  14  33 NW10      30.11S
BEAVER ISLAND  SUNNY     40  15  36 N6        30.17R
BELLAIRE       SUNNY     40  14  34 N3        30.15S
CADILLAC       SUNNY     41  20  42 N9G18     30.12R
CHARLEVOIX     SUNNY     37  24  60 NW8       30.19R
FRANKFORT      SUNNY     40  27  60 N6        30.18R
GAYLORD        SUNNY     39  11  31 N8        30.11S
GRAYLING       SUNNY     41  13  31 N6        30.12R
HARBOR SPRINGS SUNNY     37  26  63 SW8       30.14S
HOUGHTON LAKE  SUNNY     43  14  31 N8        30.11S
MANISTEE       SUNNY     39  28  65 NW8       30.18R
OSCODA         SUNNY     44  18  34 N6        30.10R
PELLSTON       SUNNY     42  11  28 N10       30.15S
TRAVERSE CITY  MOSUNNY   38  24  57 N5        30.16R
$$
MIZ007>008-015-231600-
EASTERN UPPER MICHIGAN

CITY           SKY/WX    TMP DP  RH WIND       PRES   REMARKS
KINROSS        SUNNY     37  10  32 NW15      30.13S
MACKINAC ISLAN SUNNY     38  16  41 W3        30.14S
NEWBERRY       SUNNY     37  16  41 N10       30.15S
S. S. MARIE    SUNNY     39  15  37 NW10      30.13R
$$
MIZ004>006-011>014-085-231600-
CENTRAL UPPER MICHIGAN

CITY           SKY/WX    TMP DP  RH WIND       PRES   REMARKS
MANISTIQUE     SUNNY     43  14  30 NW8       30.16R
ESCANABA       SUNNY     43  19  39 N7        30.19R
MENOMINEE      SUNNY     43  18  36 E10       30.19S
SAWYER-GWINN   SUNNY     41  21  45 E7        30.16F
$$
MIZ001>003-009>011-084-231600-
WESTERN UPPER MICHIGAN

CITY           SKY/WX    TMP DP  RH WIND       PRES   REMARKS
IRON MOUNTAIN  SUNNY     42  21  43 N5        30.16S
HOUGHTON         N/A     41  22  46 MISG      30.16F
COPPER HARBOR    N/A     37  28  70 N10       30.17F
IRONWOOD       PTSUNNY   46  27  46 E10       30.10F
$$

ABBREVIATIONS USED IN REMARKS
   TC - TEMPERATURE IN CELSIUS
  WCI - WIND CHILL INDEX
   HX - HEAT INDEX
  VSB - VISIBILITY




USA.gov is the U.S. government's official web portal to all federal, state and local government web resources and services.